Location: Cussy
(47.0410°N, 4.6412°E)
Time: 06:41:19
(UTC+00:00)

Cosmos 2228 Rocket - Pass Details

Date: 30 November 2020
Orbit: 618 x 652 km, 82.5° (Epoch: 18 January)

Event Time Altitude Azimuth Distance (km) Brightness Sun altitude
Rises 17:04:59 0° 147° (SSE) 2,951 6.4 -11.6°
Reaches altitude 10° 17:07:47 10° 129° (SE) 2,042 5.4 -12.1°
Maximum altitude 17:10:55 19° 85° (E) 1,549 4.5 -12.6°
Enters shadow 17:11:15 18° 79° (E) 1,556 4.5 -12.7°
